Location: Caltech
(34.1382°N, 118.1253°W)
Time: 21:53:11
(UTC-07:00)

OAO 2 Rocket - Visible Passes

Search period start: 17 April 2015 00:00
Search period end: 27 April 2015 00:00
Orbit: 677 x 748 km, 35.0° (Epoch: 16 April)

Date Brightness Start Highest point End Pass type
(mag) Time Alt. Az. Time Alt. Az. Time Alt. Az.
17 Apr 4.9 03:44:08 27° SE 03:44:08 27° SE 03:46:36 10° ESE visible
17 Apr 4.6 05:23:10 16° WSW 05:25:47 23° SSW 05:29:52 10° SSE visible
18 Apr 4.4 04:29:42 30° S 04:29:42 30° S 04:33:14 10° SE visible
18 Apr 5.1 20:29:53 10° S 20:32:09 14° SSE 20:32:09 14° SSE visible
19 Apr 5.2 05:15:27 13° SW 05:15:31 13° SW 05:17:56 10° S visible
19 Apr 4.4 21:14:50 10° SW 21:18:04 29° S 21:18:04 29° S visible
20 Apr 4.5 20:18:10 10° SSW 20:22:11 24° SSE 20:24:47 17° ESE visible
20 Apr 4.9 22:01:31 10° WSW 22:03:49 27° WSW 22:03:49 27° WSW visible
21 Apr 3.5 21:04:21 10° SW 21:09:16 52° SSE 21:10:20 44° ESE visible
21 Apr 5.9 22:48:52 10° W 22:49:23 13° W 22:49:23 13° W visible
22 Apr 3.9 20:07:20 10° SW 20:11:59 38° SSE 20:16:41 10° E visible
22 Apr 3.6 21:51:29 10° WSW 21:55:42 61° WSW 21:55:42 61° WSW visible
23 Apr 3.2 20:54:10 10° WSW 20:59:12 73° SSE 21:01:52 29° E visible
23 Apr 5.3 22:38:57 10° W 22:40:52 23° W 22:40:52 23° W visible
24 Apr 3.5 19:56:57 10° WSW 20:01:51 57° SSE 20:06:53 10° E visible
24 Apr 3.2 21:41:33 10° W 21:46:39 82° N 21:46:53 79° NE visible
25 Apr 3.3 20:44:10 10° W 20:49:12 89° N 20:52:47 20° E visible
25 Apr 4.8 22:29:02 10° W 22:31:47 33° W 22:31:47 33° W visible
26 Apr 3.3 21:31:38 10° W 21:36:42 81° N 21:37:36 61° ENE visible
26 Apr 6.1 23:16:28 10° W 23:16:35 11° W 23:16:35 11° W visible
